CCA4555 ZUCK-ZSPD

Flight info

Callsign CCA4555
Flight time N/A
Altitude 33100
Route OLNER2X OLNER B213 WHA R343 EKIMU
Aircraft A320/M-SDE3FGHIRWY/LB1

Departure

Time N/A
Airport Chongqing Jiangbei International Airport (ZUCK)

Arrival

Time 2026-05-07 19:25
Airport Shanghai Pudong International Airport (ZSPD)
Time Latitude Longitude Altitude Speed Heading
2026-05-07 18:52 31.42097 120.88464 16829 ft 428 kts 112°
2026-05-07 18:52 31.41082 120.91699 16343 ft 425 kts 112°
2026-05-07 18:52 31.39870 120.94810 15848 ft 419 kts 121°
2026-05-07 18:53 31.38277 120.97650 15663 ft 405 kts 130°
2026-05-07 18:53 31.36516 121.00209 15687 ft 405 kts 133°
2026-05-07 18:53 31.34707 121.02734 15699 ft 404 kts 133°
2026-05-07 18:53 31.32919 121.05222 15722 ft 405 kts 133°
2026-05-07 18:54 31.31094 121.07774 15748 ft 405 kts 133°
2026-05-07 18:54 31.29304 121.10289 15748 ft 406 kts 133°
2026-05-07 18:54 31.27487 121.12851 15751 ft 405 kts 133°
2026-05-07 18:54 31.25680 121.15402 15777 ft 405 kts 133°
2026-05-07 18:55 31.23898 121.17918 15782 ft 405 kts 133°
2026-05-07 18:55 31.22096 121.20461 15790 ft 405 kts 133°
2026-05-07 18:55 31.20277 121.23025 15439 ft 406 kts 132°
2026-05-07 18:55 31.18487 121.25542 14934 ft 405 kts 131°
2026-05-07 18:56 31.16700 121.28055 14451 ft 402 kts 131°
2026-05-07 18:56 31.14918 121.30559 13994 ft 399 kts 130°
2026-05-07 18:56 31.13226 121.33101 13536 ft 396 kts 123°
2026-05-07 18:56 31.11967 121.35919 13095 ft 392 kts 110°
2026-05-07 18:57 31.11156 121.38927 12640 ft 388 kts 104°
2026-05-07 18:57 31.10483 121.41971 12189 ft 385 kts 103°
2026-05-07 18:57 31.09838 121.44964 11739 ft 382 kts 103°
2026-05-07 18:57 31.09183 121.47949 11278 ft 379 kts 103°
2026-05-07 18:58 31.08520 121.50899 10828 ft 376 kts 104°
2026-05-07 18:58 31.07850 121.53838 10435 ft 370 kts 104°
2026-05-07 18:58 31.07202 121.56647 10328 ft 355 kts 104°
2026-05-07 18:58 31.06574 121.59366 10236 ft 340 kts 104°
2026-05-07 18:59 31.05968 121.61984 10132 ft 326 kts 104°
2026-05-07 18:59 31.05390 121.64481 10039 ft 314 kts 104°
2026-05-07 18:59 31.04824 121.66929 9680 ft 312 kts 104°
2026-05-07 18:59 31.04279 121.69360 9329 ft 309 kts 100°
2026-05-07 19:00 31.04199 121.71840 8984 ft 303 kts 79°
2026-05-07 19:00 31.04734 121.74175 8676 ft 296 kts 69°
2026-05-07 19:00 31.05395 121.76434 8370 ft 293 kts 68°
2026-05-07 19:00 31.06062 121.78678 8066 ft 290 kts 68°
2026-05-07 19:01 31.06707 121.80891 7764 ft 287 kts 68°
2026-05-07 19:01 31.07328 121.83070 7464 ft 284 kts 69°
2026-05-07 19:01 31.07940 121.85249 7165 ft 281 kts 69°
2026-05-07 19:01 31.08545 121.87415 6868 ft 279 kts 69°
2026-05-07 19:02 31.09139 121.89551 6572 ft 276 kts 68°
2026-05-07 19:02 31.09721 121.91644 6282 ft 273 kts 69°
2026-05-07 19:02 31.10305 121.93747 6000 ft 272 kts 68°
2026-05-07 19:02 31.10891 121.95881 5902 ft 273 kts 70°
2026-05-07 19:03 31.11320 121.97990 5894 ft 260 kts 75°
2026-05-07 19:03 31.11653 122.00034 5895 ft 256 kts 76°
2026-05-07 19:03 31.11978 122.02078 5891 ft 257 kts 75°
2026-05-07 19:03 31.12305 122.04121 5890 ft 257 kts 76°
2026-05-07 19:04 31.12522 122.06185 5898 ft 259 kts 84°
2026-05-07 19:04 31.12482 122.08293 5893 ft 262 kts 90°
2026-05-07 19:04 31.12341 122.10429 5892 ft 262 kts 91°
2026-05-07 19:04 31.12187 122.12544 5892 ft 262 kts 91°
2026-05-07 19:05 31.12022 122.14658 5887 ft 263 kts 95°
2026-05-07 19:05 31.11643 122.16755 5882 ft 265 kts 103°
2026-05-07 19:05 31.11078 122.18793 5879 ft 266 kts 106°
2026-05-07 19:05 31.10474 122.20815 5882 ft 266 kts 107°
2026-05-07 19:06 31.09859 122.22875 5884 ft 266 kts 106°
2026-05-07 19:06 31.08176 122.26722 5878 ft 268 kts 122°
2026-05-07 19:06 31.07124 122.28499 5876 ft 269 kts 123°
2026-05-07 19:07 31.06045 122.30293 5876 ft 269 kts 123°
2026-05-07 19:07 31.04986 122.32069 5873 ft 268 kts 123°
2026-05-07 19:07 31.03797 122.33763 5872 ft 269 kts 134°
2026-05-07 19:07 31.02404 122.35223 5871 ft 270 kts 140°
2026-05-07 19:08 31.00950 122.36604 5871 ft 270 kts 141°
2026-05-07 19:08 30.99476 122.37988 5870 ft 270 kts 141°
2026-05-07 19:08 30.98019 122.39362 5867 ft 269 kts 142°
2026-05-07 19:08 30.96460 122.40538 5866 ft 269 kts 153°
2026-05-07 19:09 30.94742 122.41469 5868 ft 269 kts 157°
2026-05-07 19:09 30.93028 122.42310 5866 ft 268 kts 158°
2026-05-07 19:09 30.91293 122.43156 5868 ft 269 kts 158°
2026-05-07 19:09 30.89569 122.43990 5865 ft 268 kts 161°
2026-05-07 19:10 30.87758 122.44564 5865 ft 267 kts 172°
2026-05-07 19:10 30.85926 122.44872 5868 ft 267 kts 174°
2026-05-07 19:10 30.84067 122.45128 5866 ft 267 kts 175°
2026-05-07 19:10 30.82217 122.45255 5852 ft 264 kts 191°
2026-05-07 19:11 30.80615 122.44415 5848 ft 251 kts 229°
2026-05-07 19:11 30.79754 122.42709 5863 ft 242 kts 261°
2026-05-07 19:11 30.79675 122.40788 5877 ft 239 kts 275°
2026-05-07 19:11 30.79745 122.38869 5875 ft 241 kts 275°
2026-05-07 19:12 30.79796 122.36924 5871 ft 241 kts 274°
2026-05-07 19:12 30.79833 122.34971 5875 ft 241 kts 274°
2026-05-07 19:12 30.79861 122.33021 5901 ft 241 kts 274°
2026-05-07 19:12 30.79883 122.31068 5921 ft 241 kts 274°
2026-05-07 19:13 30.79901 122.29131 5934 ft 242 kts 274°
2026-05-07 19:13 30.79918 122.27182 5934 ft 242 kts 273°
2026-05-07 19:13 30.79934 122.25222 5940 ft 241 kts 274°
2026-05-07 19:13 30.79949 122.23284 5943 ft 241 kts 274°
2026-05-07 19:14 30.79965 122.21330 5944 ft 241 kts 273°
2026-05-07 19:14 30.79979 122.19373 5944 ft 241 kts 274°
2026-05-07 19:14 30.79993 122.17436 5944 ft 242 kts 274°
2026-05-07 19:14 30.80006 122.15470 5946 ft 242 kts 274°
2026-05-07 19:15 30.80018 122.13524 5945 ft 242 kts 274°
2026-05-07 19:15 30.80030 122.11567 5946 ft 242 kts 274°
2026-05-07 19:15 30.80043 122.09624 5944 ft 241 kts 274°
2026-05-07 19:15 30.80290 122.07747 5940 ft 227 kts 293°
2026-05-07 19:16 30.81028 122.06139 5892 ft 225 kts 304°
2026-05-07 19:16 30.81874 122.04620 5583 ft 225 kts 306°
2026-05-07 19:16 30.82728 122.03103 5310 ft 223 kts 306°
2026-05-07 19:16 30.83565 122.01605 5047 ft 221 kts 306°
2026-05-07 19:17 30.84406 122.00091 4787 ft 219 kts 307°
2026-05-07 19:17 30.85214 121.98626 4540 ft 217 kts 307°
2026-05-07 19:17 30.86030 121.97144 4295 ft 216 kts 307°
2026-05-07 19:17 30.86833 121.95683 4055 ft 214 kts 308°
2026-05-07 19:18 30.87631 121.94228 3818 ft 213 kts 308°
2026-05-07 19:18 30.88434 121.92760 3580 ft 212 kts 309°
2026-05-07 19:18 30.89225 121.91315 3343 ft 211 kts 309°
2026-05-07 19:18 30.90002 121.89893 3110 ft 210 kts 309°
2026-05-07 19:19 30.90886 121.88622 3054 ft 189 kts 327°
2026-05-07 19:19 30.91946 121.87839 3084 ft 174 kts 340°
2026-05-07 19:19 30.93007 121.87323 3074 ft 153 kts 345°
2026-05-07 19:19 30.93965 121.86941 3069 ft 142 kts 347°
2026-05-07 19:20 30.94900 121.86590 3113 ft 142 kts 347°
2026-05-07 19:20 30.95849 121.86236 3154 ft 143 kts 347°
2026-05-07 19:20 30.96792 121.85883 3174 ft 142 kts 348°
2026-05-07 19:20 30.97747 121.85525 3056 ft 142 kts 348°
2026-05-07 19:21 30.98683 121.85172 2869 ft 141 kts 348°
2026-05-07 19:21 30.99619 121.84819 2686 ft 141 kts 348°
2026-05-07 19:21 31.00549 121.84468 2498 ft 140 kts 348°
2026-05-07 19:21 31.01476 121.84119 2310 ft 140 kts 348°
2026-05-07 19:22 31.02398 121.83770 2124 ft 139 kts 348°
2026-05-07 19:22 31.03313 121.83424 1937 ft 139 kts 348°
2026-05-07 19:22 31.04244 121.83073 1751 ft 138 kts 348°
2026-05-07 19:22 31.05152 121.82730 1570 ft 138 kts 348°
2026-05-07 19:23 31.06074 121.82383 1385 ft 138 kts 348°
2026-05-07 19:23 31.06982 121.82040 1206 ft 137 kts 347°
2026-05-07 19:23 31.07897 121.81696 1022 ft 137 kts 347°
2026-05-07 19:23 31.08804 121.81354 843 ft 137 kts 346°
2026-05-07 19:24 31.09714 121.81011 660 ft 136 kts 346°
2026-05-07 19:24 31.10608 121.80664 487 ft 136 kts 345°
2026-05-07 19:24 31.11506 121.80330 311 ft 134 kts 345°
2026-05-07 19:24 31.12379 121.80009 129 ft 127 kts 346°
2026-05-07 19:25 31.13180 121.79710 22 ft 111 kts 346°
2026-05-07 19:25 31.13801 121.79491 22 ft 69 kts 339°
2026-05-07 19:25 31.14089 121.79367 22 ft 22 kts 342°
2026-05-07 19:25 31.14233 121.79319 22 ft 20 kts 351°
2026-05-07 19:26 31.14369 121.79321 21 ft 18 kts
2026-05-07 19:26 31.14489 121.79352 21 ft 16 kts 38°
2026-05-07 19:26 31.14529 121.79451 21 ft 11 kts 72°
2026-05-07 19:26 31.14557 121.79544 22 ft 12 kts 71°
2026-05-07 19:27 31.14583 121.79639 22 ft 12 kts 72°
2026-05-07 19:27 31.14588 121.79729 21 ft 7 kts 111°
2026-05-07 19:27 31.14548 121.79761 21 ft 8 kts 170°
2026-05-07 19:27 31.14485 121.79775 22 ft 10 kts 167°
2026-05-07 19:28 31.14411 121.79801 21 ft 12 kts 162°
2026-05-07 19:28 31.14321 121.79835 21 ft 14 kts 162°
2026-05-07 19:28 31.14220 121.79874 22 ft 15 kts 162°
2026-05-07 19:28 31.14114 121.79914 21 ft 16 kts 162°
2026-05-07 19:29 31.14004 121.79955 21 ft 16 kts 162°
2026-05-07 19:29 31.13969 121.79969 21 ft 0 kts 161°
2026-05-07 19:29 31.13954 121.79974 21 ft 3 kts 161°
2026-05-07 19:29 31.13925 121.79984 22 ft 4 kts 182°
2026-05-07 19:30 31.13917 121.79976 22 ft 2 kts 242°
2026-05-07 19:30 31.13908 121.79945 22 ft 5 kts 252°
2026-05-07 19:30 31.13896 121.79903 21 ft 4 kts 253°
2026-05-07 19:30 31.13888 121.79873 21 ft 0 kts 251°
2026-05-07 19:31 31.13887 121.79871 22 ft 0 kts 251°